Lapse_Rate
5.8 5.9 5.8 5.6 5.9 6.0 5.9 5.9 5.8 5.9 6.3 6.3 6.2 6.2 6.2 6.2 6.2 6.2 6.3 6.4 6.4 6.3 6.3 6.2 6.1 6.0 6.0 6.1 6.2 6.3 6.3 6.3 6.5 6.7 6.7 6.7 6.5 6.4 6.3 6.2 6.2 6.1 6.2
5.8 5.8 5.8 5.8 5.9 5.8 5.9 6.0 5.9 5.9 6.1 6.3 6.3 6.2 6.1 6.2 6.2 6.2 6.2 6.3 6.4 6.4 6.3 6.3 6.3 6.2 6.2 6.3 6.3 6.4 6.5 6.5 6.7 6.9 6.9 6.9 6.7 6.6 6.6 6.5 6.4 6.4 6.4
5.9 5.9 5.9 5.9 5.9 5.9 5.7 5.8 5.9 6.0 5.9 6.1 6.5 6.2 6.1 6.0 6.1 6.1 6.2 6.3 6.4 6.4 6.5 6.5 6.5 6.4 6.4 6.4 6.5 6.6 6.7 6.7 6.8 7.0 7.1 7.1 7.0 6.9 6.8 6.9 6.8 6.7 6.7
6.2 6.1 6.1 6.0 6.0 5.9 5.9 5.8 5.7 5.9 5.9 5.9 6.1 6.3 6.1 6.0 6.1 6.2 6.3 6.4 6.5 6.6 6.6 6.6 6.6 6.6 6.8 6.8 6.7 6.7 6.8 6.8 7.0 7.2 7.3 7.3 7.3 7.1 7.0 7.0 7.0 6.9 6.8
6.1 6.2 6.2 6.0 6.0 5.8 5.8 5.5 5.6 5.7 5.8 5.9 6.0 6.2 6.3 6.2 6.2 6.2 6.3 6.4 6.6 6.7 6.8 6.8 6.9 6.9 6.9 6.9 6.9 6.9 7.0 7.2 7.3 7.4 7.4 7.4 7.4 7.3 7.2 7.2 7.0 6.9 6.9
6.0 6.2 6.1 6.2 6.2 5.9 5.7 5.6 5.5 5.6 5.7 5.8 5.9 6.0 6.1 6.3 6.5 6.3 6.4 6.6 6.7 6.7 6.9 6.9 7.0 7.0 7.0 7.0 7.1 7.2 7.4 7.4 7.4 7.4 7.5 7.5 7.5 7.5 7.3 7.2 7.1 6.9 6.8
6.0 6.1 6.1 6.3 6.4 6.0 5.8 5.5 5.5 5.7 5.8 5.9 5.9 5.9 6.0 6.1 6.3 6.4 6.5 6.5 6.7 6.9 6.8 6.9 6.9 7.0 7.1 7.2 7.3 7.3 7.4 7.4 7.5 7.5 7.4 7.5 7.4 7.4 7.3 7.1 6.9 6.8 6.6
5.9 5.9 6.2 6.3 6.4 6.3 6.2 6.1 5.7 5.5 5.5 5.6 5.8 5.7 6.0 6.1 6.2 6.1 6.4 6.7 6.8 6.9 6.9 6.9 7.0 7.1 7.3 7.2 7.2 7.3 7.4 7.5 7.6 7.5 7.5 7.5 7.4 7.2 7.1 6.9 6.8 6.6 6.4
5.9 6.0 6.1 5.9 5.9 6.1 6.2 6.0 5.8 5.6 5.5 5.6 5.6 5.7 5.9 6.1 6.0 6.0 6.3 6.5 6.7 6.8 6.9 6.9 7.1 7.2 7.2 7.2 7.2 7.4 7.4 7.5 7.5 7.4 7.3 7.3 7.2 7.2 7.1 6.9 6.3 6.2 6.3
5.8 6.0 5.8 5.8 5.5 5.9 6.0 5.9 5.8 5.9 5.6 5.7 5.6 5.8 5.8 5.9 6.0 6.2 6.3 6.4 6.6 6.7 6.8 7.0 7.1 7.2 7.2 7.2 7.2 7.3 7.3 7.2 7.2 7.2 7.2 7.1 7.0 6.8 6.8 6.1 6.3 6.4 6.4
5.8 5.8 5.5 5.6 5.6 5.6 5.9 6.0 5.9 5.9 5.9 5.9 5.8 5.6 5.6 5.8 6.1 6.2 6.3 6.3 6.5 6.6 6.8 6.9 7.1 7.2 7.2 7.2 7.2 7.2 7.1 7.1 7.1 7.1 6.9 6.8 6.8 6.7 6.2 6.3 6.3 6.2 6.3
5.9 5.5 5.4 5.5 5.6 5.9 6.0 5.8 5.8 5.9 6.0 6.0 6.0 5.8 5.8 5.8 5.8 5.9 6.1 6.1 6.4 6.8 6.8 7.1 7.1 7.1 7.1 7.0 7.0 7.0 7.0 7.0 7.0 7.0 7.0 6.7 6.5 6.2 6.1 6.0 5.8 6.0 6.1
5.8 5.7 5.7 5.8 5.8 5.9 5.9 5.9 6.0 6.2 6.2 6.2 6.0 6.0 5.9 5.8 5.7 6.0 6.2 6.1 6.4 6.7 6.9 7.0 6.9 7.0 6.9 6.8 6.9 6.9 6.9 6.9 6.9 6.9 6.8 6.4 6.1 6.0 6.0 5.7 5.6 5.8 6.0
6.2 6.3 6.0 5.8 5.7 5.9 5.8 5.9 6.1 6.3 6.4 6.2 6.1 6.0 6.1 6.1 6.1 6.2 6.2 6.2 6.5 6.8 6.8 6.7 6.7 6.8 6.8 7.0 6.8 6.8 6.6 6.6 6.7 6.7 6.4 6.0 5.7 5.7 5.7 5.5 5.5 5.8 5.8
6.0 6.3 6.3 6.0 5.9 5.8 5.9 5.9 6.0 6.2 6.4 6.3 6.2 6.1 6.0 5.9 6.0 6.0 6.2 6.3 6.5 6.7 6.8 6.6 6.3 6.4 6.7 6.7 6.5 6.4 6.2 6.2 6.0 5.9 5.8 5.6 5.6 5.6 5.7 5.6 5.7 5.7 5.8
5.8 6.2 6.0 6.0 5.7 5.7 5.9 5.9 6.1 6.0 6.1 6.3 6.3 6.2 6.1 6.0 6.0 6.1 6.1 6.1 6.3 6.4 6.8 6.3 5.9 5.9 5.9 6.0 6.1 5.9 5.8 5.8 5.8 5.7 5.6 5.5 5.5 5.7 5.7 5.7 5.6 5.7 5.8
6.0 6.1 6.2 6.1 6.0 6.0 6.0 6.0 6.0 5.9 6.1 5.9 6.0 6.0 6.2 6.0 5.9 5.9 6.1 6.2 6.4 6.3 6.5 6.3 6.1 6.0 5.9 5.7 5.6 5.5 5.5 5.7 5.6 5.5 5.4 5.2 5.4 5.3 5.2 5.4 5.4 5.6 5.8
6.3 6.2 6.4 6.1 5.8 6.0 6.0 6.1 6.1 5.9 5.8 5.8 5.7 5.8 5.9 5.6 5.7 5.6 5.5 5.8 5.9 5.8 6.1 6.5 6.5 6.6 6.4 5.7 5.7 5.6 5.5 5.6 5.6 5.6 5.5 5.5 5.5 5.6 5.4 5.7 5.6 6.0 6.0
6.3 6.3 6.2 6.4 6.1 6.3 6.2 6.1 6.2 6.0 5.8 5.7 5.5 6.0 5.8 4.9 5.2 5.3 5.3 5.6 5.8 5.8 5.8 6.1 6.6 6.3 6.0 5.9 6.0 5.9 5.7 5.8 5.5 5.8 5.6 5.6 5.7 5.7 5.7 5.4 5.5 6.2 6.3
6.4 6.5 6.3 6.4 6.3 6.3 6.3 6.3 6.5 6.3 5.9 5.9 5.9 5.6 5.4 5.1 4.7 5.2 5.4 5.6 5.7 5.7 5.7 5.8 5.8 6.2 6.1 6.2 6.1 6.1 5.9 6.0 5.7 5.8 5.8 5.8 5.7 5.7 5.7 5.9 5.8 6.2 6.0
6.5 6.6 6.3 6.2 6.2 6.4 6.4 6.4 6.4 6.3 6.1 6.1 5.7 5.4 5.4 5.4 4.8 5.0 5.2 5.3 5.2 5.5 5.5 5.5 5.7 5.8 6.0 5.9 6.0 6.1 6.2 5.9 6.1 5.9 5.8 6.0 5.9 6.0 5.8 6.0 6.3 6.1 5.9
6.4 6.3 6.2 6.3 6.3 6.5 6.6 6.5 6.2 6.1 6.0 6.1 5.7 5.7 5.2 5.3 5.2 4.7 4.8 5.1 5.4 5.2 5.6 5.6 5.9 6.0 5.9 6.0 5.9 5.8 5.9 5.7 5.9 5.8 5.8 5.8 5.8 5.9 5.8 6.0 6.1 5.9 5.6
6.4 6.3 6.3 6.4 6.5 6.6 6.6 6.4 6.3 6.2 5.9 5.8 6.0 5.8 5.3 5.5 5.3 5.3 5.3 5.3 5.2 5.4 5.7 5.8 5.8 6.1 6.0 6.1 5.8 6.0 5.8 5.8 6.0 5.8 5.8 5.7 5.9 5.8 5.6 5.4 5.2 5.2 5.2
6.4 6.5 6.6 6.5 6.6 6.6 6.5 6.3 6.1 5.9 5.9 6.1 6.0 5.9 5.8 5.4 5.8 5.6 5.7 5.7 5.7 5.8 5.8 6.0 6.0 6.0 5.9 6.0 6.1 6.0 5.8 5.8 5.9 5.9 5.5 5.6 5.6 5.4 5.4 5.2 5.2 5.0 4.9
6.3 6.4 6.5 6.7 6.7 6.8 6.7 6.2 6.0 6.0 6.0 6.3 6.2 5.9 6.0 6.0 6.0 6.0 5.7 5.7 5.9 6.2 6.0 6.1 6.0 6.1 5.6 5.6 6.1 5.8 5.9 5.8 5.6 5.5 5.3 5.6 5.7 5.2 5.1 4.9 4.7 4.7 4.8
6.2 6.2 6.5 6.5 6.7 6.6 6.6 6.4 6.3 6.0 6.0 6.0 6.2 6.6 6.3 6.2 6.3 6.2 6.1 6.0 5.8 6.0 6.0 5.8 5.9 5.9 5.9 6.0 5.7 5.8 5.6 5.6 5.6 5.5 5.3 5.3 5.3 5.2 5.2 4.8 4.7 4.8 4.9
Wind_Speed
10 15 13 14 12 15 13 10 10 8 8 9 15 15 13 14 17 15 11 13 11 12 11 11 11 10 8 7 5 4 4 3 3 3 4 5 5 7 7 8 8 9 10
16 13 11 12 13 14 14 13 10 6 4 9 9 12 13 14 16 16 13 11 8 10 11 11 10 9 9 7 6 5 5 6 6 6 7 8 8 9 10 10 11 12 12
18 15 10 7 14 16 15 13 9 7 4 4 5 10 11 13 13 14 14 13 11 10 10 10 9 9 8 8 8 8 8 9 9 9 9 10 11 11 12 12 13 13 14
24 17 8 8 15 14 14 9 5 4 5 5 4 4 7 11 12 14 14 13 12 12 12 11 11 10 9 10 10 10 11 11 11 12 13 12 13 14 15 15 16 16 17
24 19 11 13 16 11 7 7 3 6 4 4 5 5 4 4 9 10 12 13 14 14 13 14 13 12 12 12 12 13 13 13 13 14 14 14 14 15 16 16 16 17 18
25 20 14 14 15 8 6 7 7 2 4 5 3 3 3 4 7 8 10 14 16 16 15 15 14 15 16 15 14 13 14 13 14 14 15 15 15 15 16 17 17 18 19
23 19 10 10 14 10 10 10 4 6 2 3 4 3 2 3 4 4 9 9 10 15 15 16 16 15 16 17 17 16 15 14 14 13 13 14 15 15 16 17 17 18 19
21 16 13 11 12 8 10 10 7 3 2 5 3 3 2 2 3 5 3 4 6 9 11 16 16 16 16 17 18 17 14 14 14 13 12 12 13 14 15 16 17 18 20
20 18 16 10 11 9 10 11 10 9 4 3 4 4 2 4 1 1 5 4 5 4 9 13 15 17 17 18 17 16 16 14 14 13 12 11 12 13 15 17 18 19 20
16 18 15 12 12 9 11 10 8 7 5 7 1 1 2 3 3 1 2 3 4 5 6 7 11 15 16 16 16 18 15 13 12 11 10 9 11 15 16 16 16 18 20
14 13 15 11 12 9 9 11 10 9 5 6 4 3 2 1 1 2 2 2 2 4 4 6 11 12 14 14 15 15 14 11 10 9 8 9 12 14 12 15 17 17 19
10 12 13 12 12 11 11 10 10 11 9 7 5 4 4 4 3 3 1 3 2 3 3 4 6 11 15 14 15 14 12 11 10 8 7 9 10 7 8 10 13 16 18
10 12 14 14 11 12 11 10 9 10 10 8 9 6 3 4 4 3 3 2 3 2 2 3 5 11 12 13 14 14 12 11 10 7 7 8 7 2 5 9 11 12 15
14 13 14 14 13 12 10 10 8 8 8 7 9 6 5 5 4 4 4 4 1 1 1 5 2 8 9 10 12 10 10 9 8 7 6 5 1 1 3 6 9 10 12
12 13 13 13 12 12 12 11 9 9 9 9 8 8 6 5 5 4 3 4 4 3 3 3 3 5 9 8 9 8 8 7 8 8 3 4 3 4 6 8 11 10 9
14 13 14 14 13 13 12 12 9 8 10 7 7 8 7 4 5 4 4 4 3 4 4 4 5 3 2 4 6 6 7 5 4 9 6 2 3 5 6 7 8 8 8
15 15 15 14 14 14 13 12 11 10 12 10 8 9 10 7 6 5 4 3 4 4 6 3 4 4 3 5 6 10 6 9 11 8 8 8 9 10 10 8 8 9 10
16 16 14 14 14 14 14 14 14 13 13 12 11 10 11 7 9 7 6 8 6 6 6 9 4 4 6 6 4 3 7 11 10 11 11 9 9 8 7 7 8 11 9
16 15 15 16 16 16 15 15 14 13 13 13 12 13 12 10 11 8 8 7 7 5 6 5 7 3 4 2 2 4 4 7 8 10 9 9 9 8 7 9 8 13 10
16 16 16 16 16 16 16 15 14 13 12 12 12 12 12 13 13 11 9 9 7 7 7 7 8 7 2 2 2 2 2 2 3 6 7 9 8 6 6 9 10 12 10
15 17 15 15 15 14 12 15 15 15 14 12 11 12 11 13 13 11 7 8 9 8 7 8 9 6 3 2 1 2 2 2 2 1 1 1 2 3 4 8 7 7 7
15 15 16 16 14 11 16 18 17 14 14 13 12 11 8 11 12 11 6 8 3 9 9 8 5 3 3 4 3 1 2 1 2 2 2 1 0 2 5 7 6 9 12
15 15 16 15 15 15 15 17 17 12 11 11 11 7 5 4 8 9 15 16 14 13 7 4 4 2 3 1 5 5 2 2 1 3 2 1 2 3 3 7 4 9 16
16 15 15 15 14 12 16 17 17 14 10 11 11 10 11 10 10 12 9 9 8 8 7 7 9 7 6 5 3 4 3 3 4 4 5 2 3 2 4 6 6 12 18
14 14 13 15 15 13 16 18 16 13 6 5 4 4 8 10 17 20 12 12 10 9 18 22 23 25 14 11 6 4 2 2 2 1 5 2 3 3 2 3 7 16 18
13 11 12 13 15 13 14 17 15 6 7 6 6 8 13 13 20 18 10 11 11 9 10 10 5 16 13 17 15 9 2 3 2 2 2 2 2 2 4 2 5 13 14
Wind_Direction
160 155 154 154 155 155 161 161 164 167 143 134 147 149 156 156 153 156 160 157 161 163 168 164 164 165 166 169 180 188 189 198 222 251 270 280 287 293 296 300 301 301 301
166 162 159 160 159 166 165 163 166 175 189 141 148 161 163 161 160 162 162 161 164 169 179 180 179 183 181 190 203 216 236 244 250 257 270 277 283 288 291 292 295 296 297
163 162 164 166 171 167 166 164 169 170 145 141 135 154 162 164 168 173 175 174 178 183 195 200 199 197 203 212 223 233 242 249 261 266 269 275 278 280 285 286 288 291 295
163 164 168 176 174 168 167 169 160 147 155 149 133 147 159 166 180 187 189 191 198 203 209 215 218 221 225 232 241 248 255 261 268 273 276 280 284 284 285 287 289 290 291
169 165 172 179 173 170 164 170 154 155 145 151 149 149 158 161 185 193 203 206 209 212 218 224 228 233 240 246 255 261 265 268 271 273 277 280 280 284 286 287 288 289 289
172 165 172 178 174 170 164 159 161 129 144 158 148 152 174 183 182 189 210 213 217 221 223 228 232 237 241 246 257 265 268 271 273 274 275 278 280 283 286 287 289 290 290
171 166 171 173 179 174 169 161 137 145 107 141 100 22 333 265 227 211 207 211 219 225 227 229 232 241 243 247 253 258 265 268 274 281 283 285 286 289 290 291 291 291 290
172 170 171 174 173 162 159 158 147 127 122 168 136 108 210 300 250 228 216 214 230 231 227 231 233 237 245 250 256 258 260 267 277 281 286 292 295 296 296 294 291 292 287
174 172 172 168 163 167 172 172 163 158 145 193 183 148 132 227 168 251 227 220 228 219 233 239 240 242 243 248 254 260 261 261 267 277 287 294 295 297 298 297 296 302 307
172 168 168 165 165 170 175 178 170 158 141 174 181 173 121 143 181 236 276 233 223 228 231 237 239 243 246 248 252 254 260 263 263 272 280 291 301 300 304 311 328 328 326
171 171 169 167 173 179 175 177 173 168 163 164 165 144 141 126 129 132 209 259 269 233 231 228 234 243 246 245 245 249 254 257 256 262 279 295 304 314 332 337 335 329 327
171 174 177 179 178 179 178 180 178 179 181 172 182 170 163 164 191 162 172 231 214 274 240 239 235 238 241 240 243 248 255 247 245 250 278 302 315 337 339 331 328 331 330
172 182 178 180 184 186 182 175 178 183 183 184 183 195 177 183 153 162 152 194 213 259 291 251 238 236 238 239 243 241 243 241 240 241 278 296 312 355 338 325 322 331 329
179 175 179 182 184 182 176 178 182 186 180 186 185 182 190 190 171 168 169 155 195 277 277 244 253 233 231 231 237 242 231 237 237 270 276 282 181 59 352 333 332 346 338
172 175 179 178 178 179 178 175 185 186 186 190 197 189 197 195 193 189 177 167 158 203 247 255 242 236 232 232 241 228 221 236 267 264 220 125 54 37 30 1 339 340 345
166 171 182 184 181 182 182 179 185 189 190 190 194 193 197 184 194 183 192 190 184 185 218 206 232 258 269 229 225 205 240 240 129 110 102 61 70 61 34 349 352 349 5
170 177 186 183 186 185 184 187 189 188 199 200 198 197 206 184 201 194 194 190 194 177 232 256 231 232 238 227 244 247 235 150 106 78 87 83 65 29 12 6 30 13 360
176 181 185 186 188 193 190 194 192 199 201 202 203 202 212 196 206 199 200 211 209 203 214 246 221 223 221 225 235 225 104 84 87 62 75 59 43 34 33 69 32 3 360
179 182 185 190 193 196 197 202 199 199 202 207 205 205 212 201 210 202 205 212 210 197 209 228 255 216 225 170 124 84 101 87 75 102 91 53 22 28 66 21 13 351 350
184 185 189 197 197 199 201 201 202 199 202 209 208 208 209 205 215 204 201 208 198 196 196 214 244 254 175 54 83 132 139 76 99 69 73 49 29 24 32 22 358 345 346
187 188 188 195 198 199 201 199 199 200 206 207 211 213 209 210 210 203 196 205 198 209 204 219 231 235 172 147 143 97 75 75 61 10 17 45 339 299 10 17 355 345 5
186 188 191 192 195 200 199 194 195 201 203 204 208 214 205 203 214 205 190 78 181 216 219 225 223 177 127 117 124 122 109 137 188 29 332 325 234 306 8 355 349 52 16
186 190 191 193 196 202 189 189 191 198 201 205 207 187 167 151 120 117 105 96 80 67 60 155 135 102 108 101 141 137 187 122 138 28 318 195 15 302 352 342 357 32 10
190 191 192 194 195 201 188 191 195 207 206 206 205 191 184 161 157 146 127 100 79 59 65 87 95 76 88 105 115 110 136 104 93 65 355 6 347 285 333 352 8 10 4
192 195 195 194 200 205 189 193 196 213 200 149 118 145 163 155 155 148 131 116 100 83 89 91 101 96 84 75 102 116 95 132 111 74 12 40 355 306 330 317 355 356 3
198 196 195 198 199 202 188 192 198 164 141 121 96 102 118 132 141 138 127 132 126 132 129 96 62 66 52 66 52 47 79 108 102 83 6 74 349 348 333 301 323 355 353